Flag for U.S.A. Weather past 2 weeks in Dayton, Ohio, U.S.A.

Now
44 °F

Overcast.


Feels Like: 37 °F
Forecast: 38 / 58 °F
Wind: 13 mph from Northeast

Location: Dayton / Wright-Patterson Air Force Base

Current Time: Apr 26, 2015 at 1:08:38 AM

Latest Report: Apr 25, 2015 at 11:58 PM


Visibility: 10 mi

Pressure: 29.73 "Hg

Humidity: 84%

Dew point: 39 °F

Location of DaytonLocation

Historic Weather in Dayton — Graph

°F

Dayton temperature yesterday

Maximum temperature yesterday: 53 °F (at 12:58 AM)
Minimum temperature yesterday: 41 °F (at 12:58 PM)
Average temperature yesterday: 46 °F

Past Weeks' High & Low Weather Summary

 TemperatureHumidityPressure
High78 °F (Apr 13, 4:58 PM)100% (Apr 16, 9:58 PM)30.30 "Hg (Apr 16, 9:58 PM)
Low29 °F (Apr 23, 6:58 AM)20% (Apr 15, 2:58 PM)29.39 "Hg (Apr 20, 12:58 AM)
Average55 °F60%29.98 "Hg
* Reported Apr 10 11:58 PM — Apr 25 11:58 PM, Dayton, Weather by CustomWeather, © 2015

Note: Actual official high and low records may vary slightly from our data, if they occured in-between our weather recording intervals... More about our weather records

Advertising

Dayton weather history for previous 24 hours

 ConditionsComfort  
Time TempWeatherWind HumidityBarometerVisibility
11:58 PM
Sat, Apr 25
44 °FOvercast.13 mph84%29.73 "Hg10 mi
10:58 PM44 °FMostly cloudy.15 mph85%29.72 "Hg10 mi
10:48 PM45 °FMostly cloudy.14 mph87%29.70 "Hg10 mi
9:58 PM45 °FOvercast.14 mph87%29.70 "Hg10 mi
8:58 PM44 °FPartly sunny.8 mph89%29.69 "Hg10 mi
7:58 PM45 °FPassing clouds.13 mph84%29.68 "Hg10 mi
6:58 PM45 °FMostly cloudy.15 mph91%29.70 "Hg10 mi
5:58 PM45 °FPartly sunny.12 mph93%29.72 "Hg10 mi
4:58 PM44 °FLight rain. Broken clouds.15 mph95%29.67 "Hg7 mi
3:58 PM43 °FLight rain. Fog.9 mph93%29.74 "Hg4 mi
2:58 PM42 °FHeavy rain. Fog.13 mph93%29.72 "Hg4 mi
1:58 PM42 °FLight rain. Fog.15 mph93%29.72 "Hg4 mi
12:58 PM41 °FRain. Partly sunny.13 mph85%29.75 "Hg7 mi
11:58 AM44 °FLight rain. Overcast.16 mph71%29.78 "Hg9 mi
10:58 AM46 °FMostly cloudy.12 mph57%29.80 "Hg10 mi
9:58 AM49 °FOvercast.14 mph54%29.81 "Hg10 mi
8:58 AM49 °FOvercast.12 mph54%29.82 "Hg10 mi
7:58 AM49 °FOvercast.13 mph61%29.83 "Hg10 mi
6:58 AM49 °FOvercast.5 mph61%29.84 "Hg10 mi
5:58 AM49 °FOvercast.5 mph65%29.86 "Hg10 mi
4:58 AM48 °FPassing clouds.3 mph81%29.88 "Hg10 mi
3:58 AM50 °FOvercast.3 mph59%29.89 "Hg10 mi
2:58 AM49 °FOvercast.3 mph71%29.91 "Hg10 mi
1:58 AM49 °FOvercast.6 mph78%29.91 "Hg10 mi
Weather by CustomWeather, © 2015

See weather overviewHow to use our weather pages